Location: Karcze
(52.0945°N, 22.4786°E)
Time: 11:57:12
(UTC+00:00)

Tianhe-1 - Visible Passes

Search period start: 22 June 2021 00:00
Search period end: 02 July 2021 00:00
Orbit: 374 x 386 km, 41.5° (Epoch: 22 June)

Date Brightness Start Highest point End Pass type
(mag) Time Alt. Az. Time Alt. Az. Time Alt. Az.
25 Jun 3.3 01:02:17 10° S 01:03:17 11° S 01:04:16 10° SSE visible
27 Jun 3.2 00:37:33 12° S 00:37:42 12° S 00:39:02 10° SSE visible
28 Jun 3.2 01:11:40 10° SSW 01:12:51 12° S 01:14:01 10° SSE visible
